GFSSGP_2pvu_pres_000.txt.gz
Presure
152 146 136 139 147 155 158 136 155 152 147 158 162 161 161 161 157 155 153 156 180 167 183 171 170 170 163 173 164 174 175 179 192 193 179 236 245 182 219 215 201 187 205 98 191 142 174 132 137
151 153 146 151 165 157 151 156 146 160 165 152 148 157 159 157 151 171 159 182 179 169 168 189 179 180 193 190 192 200 186 213 210 212 225 209 249 130 218 229 214 197 218 205 194 170 183 171 174
149 144 150 139 131 150 152 156 156 163 145 155 154 168 157 165 179 182 192 164 175 180 180 191 211 195 209 201 208 234 244 212 238 244 240 246 249 232 250 207 201 199 210 201 201 201 179 180 163
158 154 158 155 152 159 167 165 147 167 174 164 177 174 161 184 177 186 192 205 226 227 217 207 233 216 288 185 229 241 224 239 234 230 247 252 243 248 212 202 203 199 193 211 199 176 169 163 147
137 164 167 153 176 170 171 173 173 178 180 197 166 188 158 226 254 230 221 226 298 284 284 253 242 272 272 260 248 252 243 244 254 256 244 234 238 223 223 209 204 189 184 192 191 190 179 144 97
155 167 145 156 163 164 165 182 174 157 177 185 208 269 270 283 161 110 126 237 262 233 271 267 278 255 267 248 254 253 242 257 226 241 228 240 245 250 222 216 195 193 194 185 187 183 171 168 160
156 187 189 164 195 188 207 214 233 215 273 245 287 275 236 214 246 253 251 240 232 268 281 264 279 262 266 255 265 261 240 258 255 245 245 242 241 234 236 227 201 188 190 185 192 178 175 175 189
195 192 189 190 182 193 273 274 273 214 285 285 284 284 266 264 265 263 264 287 291 276 274 279 257 268 255 260 259 257 242 250 235 236 238 230 235 234 228 208 194 182 190 180 173 170 174 200 181
168 197 213 276 289 288 260 291 305 321 329 325 319 312 313 304 300 285 281 273 274 266 266 257 262 260 257 252 250 247 243 240 238 238 230 231 237 238 220 220 231 180 185 177 174 176 182 178 174
204 256 297 293 290 324 311 302 302 299 295 287 285 284 278 273 274 279 274 272 271 267 261 255 255 254 252 251 208 240 242 235 231 226 231 220 223 229 221 219 213 201 221 175 179 173 175 179 178
317 314 300 286 271 266 260 256 256 251 268 258 253 255 251 253 262 251 257 256 241 245 242 249 244 248 248 246 240 241 234 221 221 224 222 225 211 221 213 215 202 199 201 173 172 181 179 201 197
315 310 304 301 309 255 247 281 299 266 262 268 289 278 267 267 282 284 274 267 282 256 259 247 230 244 245 231 238 239 238 231 230 227 221 226 226 217 221 216 212 202 194 186 169 182 183 172 171
309 275 274 282 287 291 281 254 268 280 251 217 222 241 277 235 224 213 226 234 254 281 302 290 214 255 264 277 294 263 237 226 217 213 221 220 217 218 224 215 215 207 213 195 210 267 184 186 177
228 232 203 226 239 228 212 221 206 206 232 264 224 225 197 243 235 223 221 235 222 213 218 238 236 229 207 217 242 238 249 249 253 240 221 217 216 214 226 224 220 213 208 191 246 268 219 190 190
222 229 233 233 202 191 232 222 211 205 213 188 208 223 166 235 201 187 220 151 185 243 251 188 186 239 227 233 184 232 205 216 254 249 228 238 260 215 219 223 235 209 211 210 239 250 257 211 180
235 181 224 227 198 206 219 212 226 200 212 189 184 187 175 220 202 208 179 201 217 180 173 198 206 202 186 202 161 202 225 202 193 224 248 217 219 216 249 264 283 232 215 212 202 238 252 227 209
201 200 205 213 205 207 196 205 213 174 170 173 147 156 205 199 195 199 202 192 195 192 185 193 193 181 175 200 217 203 207 196 189 223 209 188 239 204 233 234 247 256 288 222 208 221 239 239 227
212 205 194 204 190 202 185 191 199 184 190 208 206 197 201 198 204 188 202 197 193 171 194 184 206 204 201 193 213 185 194 202 173 214 210 173 217 200 237 213 212 239 271 259 228 205 216 237 217
202 204 201 198 204 187 203 207 205 201 198 201 197 195 194 196 198 198 199 208 192 192 184 185 170 184 207 194 196 198 219 217 218 219 186 212 224 209 226 223 220 231 251 282 266 246 202 236 228
188 188 186 190 196 186 189 191 190 200 183 193 197 195 180 192 193 197 199 203 200 207 203 201 202 202 203 202 205 210 203 213 216 220 225 205 201 194 235 213 218 215 197 246 245 255 243 211 237
177 189 193 195 196 189 184 185 178 182 183 189 188 196 183 191 183 178 182 190 186 191 191 192 191 198 193 188 202 196 207 214 211 215 213 223 213 235 239 232 223 228 238 218 234 312 249 249 219
196 198 195 190 181 180 185 185 191 181 182 181 153 180 181 182 193 195 193 193 194 194 189 196 195 193 199 192 191 204 199 204 201 208 215 217 218 224 230 239 225 217 233 215 274 323 311 188 288
194 189 190 186 180 182 177 173 175 182 178 178 179 176 180 174 181 199 192 191 189 186 189 182 189 189 193 195 191 189 204 202 206 209 214 217 220 227 225 242 249 235 232 257 294 319 331 312 301
191 187 189 184 181 176 170 175 163 175 159 174 167 180 143 168 172 190 175 192 183 191 184 195 189 186 188 191 195 201 194 200 201 210 219 223 216 225 233 244 251 245 276 291 299 332 332 321 266
199 178 192 190 191 184 175 177 189 161 162 169 165 180 179 171 179 173 190 178 187 191 187 192 195 183 181 191 196 194 195 197 204 205 215 234 217 232 237 243 245 269 295 311 348 358 344 327 315
181 182 184 161 173 173 154 190 155 154 163 162 147 171 166 175 170 180 186 168 181 182 193 193 193 134 201 188 197 201 195 195 203 204 210 227 231 243 240 243 272 308 341 366 362 352 348 336 324
176 187 166 181 163 172 164 152 187 196 168 127 178 154 177 182 172 171 182 196 177 186 188 193 141 196 194 193 194 200 195 199 199 214 211 224 242 235 249 263 319 374 359 349 340 356 348 342 341
181 179 176 179 145 153 183 143 108 138 167 181 126 189 149 195 172 185 178 192 178 189 184 194 195 194 194 195 195 199 194 201 208 211 230 224 246 241 274 324 350 346 339 338 330 341 340 341 337
186 188 144 166 176 157 139 150 97 150 172 179 130 179 146 178 180 183 197 194 186 197 194 187 194 195 194 191 193 199 195 199 213 222 243 224 244 254 290 354 343 334 329 323 324 323 330 332 333
89 177 180 174 165 189 153 163 120 181 157 126 183 172 158 189 178 185 202 193 195 190 192 199 198 198 195 196 197 202 195 212 214 206 230 249 252 278 360 352 335 330 321 321 320 324 321 325 329

GFSSGP_2pvu_pres_003.txt.gz
Presure
144 147 142 150 132 165 159 158 170 148 137 140 149 155 135 154 163 171 158 168 162 149 174 169 172 180 163 200 171 170 207 240 208 222 216 224 214 257 207 206 234 243 192 232 208 241 213 161 185
119 117 156 131 139 150 132 135 125 141 149 149 135 140 145 160 163 160 174 174 177 176 174 188 199 199 197 206 228 234 217 227 238 238 226 219 241 222 129 216 208 62 265 210 169 241 223 189 191
127 137 155 127 123 157 118 125 149 137 141 149 168 157 144 164 164 159 170 195 205 203 175 220 179 203 257 222 237 229 239 240 249 234 220 238 236 241 227 238 222 232 208 241 221 217 197 208 199
151 159 130 157 149 152 146 156 159 177 168 176 161 167 179 183 154 191 226 180 240 248 215 241 228 267 268 294 240 284 280 281 255 270 256 253 245 228 237 260 224 242 205 220 214 211 216 199 195
133 146 148 161 162 162 163 175 151 185 174 160 168 188 159 184 229 272 204 242 237 218 239 231 233 227 234 132 248 221 220 238 256 265 262 275 238 249 240 255 228 214 190 210 194 112 221 178 181
170 169 166 167 166 153 156 166 166 166 175 183 186 195 190 218 246 256 272 248 278 247 256 254 249 254 257 244 264 269 260 270 269 262 263 263 258 251 253 236 225 207 208 185 198 206 196 182 200
147 169 165 169 174 174 173 179 179 198 192 215 289 237 289 290 281 284 280 267 248 261 277 302 274 272 287 245 263 266 271 268 263 265 256 262 249 252 246 240 242 205 228 161 187 198 89 186 193
170 169 161 160 190 177 189 170 204 221 293 333 330 240 328 329 300 304 273 252 245 269 269 254 256 263 258 249 256 260 258 252 255 246 241 246 250 254 246 232 243 221 192 190 178 181 187 173 190
178 177 181 174 170 201 217 253 311 309 302 302 299 297 290 291 280 266 280 283 279 281 287 280 268 263 258 255 260 238 249 247 244 241 236 245 245 240 247 243 236 236 217 199 184 183 179 187 179
194 196 176 268 206 277 297 288 235 266 266 261 260 260 258 257 258 257 286 311 249 241 241 241 249 246 235 235 242 248 248 243 240 223 224 235 232 236 231 240 235 224 233 211 182 188 184 173 181
190 198 257 326 334 289 284 293 285 272 313 305 297 323 269 253 243 279 250 288 301 292 276 282 249 238 236 304 294 264 236 235 236 239 242 238 231 232 222 233 235 234 220 208 229 188 179 179 174
304 196 304 303 313 291 294 261 255 252 243 234 255 249 217 276 261 256 251 235 223 227 206 196 250 252 241 228 222 217 261 266 267 267 280 234 232 236 237 227 232 230 230 226 227 202 190 184 194
249 264 262 263 249 244 256 243 230 248 235 238 234 233 224 219 206 215 208 211 213 230 219 224 198 198 209 224 240 203 227 220 232 221 246 249 257 264 227 227 229 231 226 232 211 203 190 184 184
237 219 246 232 224 235 231 233 229 224 223 219 227 209 214 216 166 183 210 222 203 183 216 217 226 216 190 208 210 198 203 189 221 213 222 196 239 240 254 257 242 236 228 219 214 218 200 190 199
234 201 212 212 244 213 236 219 232 223 212 190 169 158 200 209 202 173 203 183 175 214 193 179 208 189 207 203 191 215 187 204 173 189 226 216 217 212 244 226 236 239 242 261 236 212 221 214 190
231 226 193 213 221 214 213 196 211 201 181 202 205 203 204 204 197 194 195 149 193 207 209 203 207 209 198 192 178 194 172 207 215 204 206 199 226 207 203 222 230 202 222 223 243 236 240 212 207
208 208 204 215 213 203 198 203 194 185 209 205 197 199 189 204 206 187 195 161 182 190 177 200 190 177 197 182 194 201 172 190 184 183 184 213 203 182 190 218 188 196 234 233 246 244 243 241 248
206 204 197 202 197 198 198 193 189 206 191 203 204 200 207 204 198 202 189 184 200 184 202 202 205 194 200 199 204 202 194 198 202 202 201 206 215 216 216 219 223 211 231 235 247 236 232 241 265
196 192 194 196 198 193 189 186 186 185 180 186 198 195 168 191 195 198 200 194 193 196 198 189 194 195 196 193 194 190 192 198 197 193 198 195 205 191 201 217 216 227 246 235 227 241 247 221 232
199 203 196 198 189 191 188 190 192 183 181 186 184 188 187 185 180 183 186 196 197 192 188 182 189 197 183 189 189 193 191 193 204 202 203 198 199 204 206 205 216 218 229 225 232 238 249 267 246
201 197 197 177 188 188 186 184 179 179 170 170 159 172 180 186 178 170 175 175 182 184 182 194 192 187 194 194 192 192 194 185 193 201 197 199 194 195 202 206 212 228 222 230 248 249 254 253 274
203 199 189 191 187 184 188 174 168 169 180 164 159 176 166 177 180 162 176 173 183 182 169 167 174 182 193 193 196 194 192 196 192 200 197 194 194 196 203 207 208 215 238 223 243 237 244 258 269
201 199 139 191 187 181 186 180 168 162 185 165 168 168 153 151 174 173 177 187 165 176 183 168 181 187 182 190 191 197 199 196 202 194 197 199 199 195 195 208 211 220 245 240 255 251 258 282 307
196 198 186 195 194 198 182 174 148 183 171 176 168 164 166 177 166 165 170 183 187 170 173 177 181 182 182 185 186 193 195 200 198 193 195 196 210 206 201 201 211 223 256 276 258 260 274 108 312
194 188 189 183 195 186 180 174 162 165 205 164 188 165 161 171 156 163 168 175 164 167 169 179 193 179 181 156 185 193 193 191 189 190 200 200 206 212 218 199 223 237 279 279 251 273 293 369 380
201 196 185 188 176 178 190 176 182 166 123 121 158 173 132 141 175 178 171 164 176 176 173 185 184 177 181 186 191 190 193 194 196 195 206 208 199 211 224 222 232 268 294 278 263 312 317 367 360
201 194 189 181 191 173 135 154 179 129 116 113 179 168 162 133 179 161 159 179 181 182 172 165 171 182 195 193 196 195 189 197 197 203 205 204 211 215 223 229 241 296 280 278 286 369 296 353 323
191 194 200 187 177 176 173 162 117 173 107 169 150 156 156 127 185 121 124 179 183 188 189 181 175 181 190 200 197 199 193 194 197 207 211 212 216 220 234 244 283 302 288 316 373 365 355 347 337
193 188 201 205 204 192 166 139 140 112 145 106 158 123 162 167 175 164 182 179 182 195 197 177 184 178 196 194 196 197 193 208 195 209 220 217 223 232 237 242 311 301 321 373 366 357 351 337 333
188 194 199 148 96 188 179 163 122 169 171 168 156 164 182 129 140 177 120 188 189 190 194 199 186 186 195 194 193 197 176 210 191 211 217 225 226 243 240 311 308 383 368 365 354 349 340 334 326

GFSSGP_2pvu_pres_006.txt.gz
Presure
123 144 142 147 148 148 129 126 141 146 142 130 105 135 129 128 126 137 156 154 142 139 163 160 164 169 175 179 189 232 235 204 233 238 244 222 254 255 247 234 254 229 227 227 243 243 134 149 213
143 123 118 117 115 107 116 155 121 155 131 128 124 155 149 137 133 158 168 174 162 169 168 192 176 171 185 187 212 230 226 227 228 225 230 204 216 256 267 250 242 244 242 130 224 226 188 173 235
146 144 129 149 157 152 145 134 143 145 138 156 157 155 159 166 167 181 152 152 173 169 163 198 201 211 210 229 236 225 222 229 209 239 233 243 257 229 230 265 267 238 65 245 247 205 233 239 226
177 126 146 146 125 148 151 135 148 154 156 156 143 166 174 145 149 161 179 171 177 196 227 259 227 224 228 230 277 231 246 254 247 238 251 240 227 281 228 257 253 251 238 220 226 223 232 227 204
141 144 151 151 141 161 151 158 151 167 151 167 159 166 155 162 182 183 190 197 222 224 256 256 272 266 260 269 254 252 254 295 272 268 261 271 255 255 255 247 229 245 233 217 226 218 206 232 211
153 142 144 146 154 166 163 162 165 158 152 157 151 181 184 180 189 204 234 259 295 292 268 255 251 258 258 256 263 282 291 286 275 260 262 265 267 257 261 250 238 230 232 222 229 216 204 206 220
153 161 164 164 164 162 169 167 184 164 177 188 182 192 191 307 346 310 320 305 284 288 270 249 245 236 278 275 263 269 260 252 261 256 260 259 254 262 245 248 245 237 235 229 233 175 216 207 189
168 177 168 144 164 166 178 186 188 174 194 200 213 305 310 304 302 301 317 275 265 264 283 296 241 280 263 266 265 255 257 255 244 249 245 239 240 238 248 247 223 246 235 226 227 207 195 198 198
175 154 172 168 177 161 179 181 191 216 297 205 278 272 273 259 269 261 263 292 270 236 230 253 275 250 269 250 253 247 239 243 250 257 252 246 239 238 233 235 235 228 233 226 217 208 203 211 195
149 174 170 134 184 195 206 191 176 305 344 286 336 329 303 309 285 262 257 254 251 272 242 264 248 246 244 241 245 274 253 262 290 282 280 238 240 239 223 234 231 230 228 234 217 213 196 204 199
166 184 186 194 195 199 179 301 288 286 272 264 260 245 246 245 251 252 247 246 234 221 220 210 198 213 231 239 234 215 211 225 208 221 223 256 263 284 270 237 232 230 227 230 224 221 205 189 200
202 207 217 213 196 289 272 266 261 254 252 252 243 236 223 240 238 180 225 214 220 210 227 225 220 197 193 205 206 215 218 222 215 224 215 215 234 206 231 249 247 223 236 225 231 223 227 197 191
267 256 280 272 205 259 263 246 244 240 233 213 201 228 203 215 208 213 182 216 220 218 185 210 202 205 215 203 200 215 215 215 210 205 199 224 206 228 214 216 220 239 249 228 230 229 227 230 201
258 257 229 255 249 239 246 224 226 231 224 212 207 215 203 213 190 186 204 198 180 188 195 200 200 205 204 191 188 202 187 179 207 215 198 203 182 204 207 215 222 205 222 233 225 247 232 230 251
225 240 227 248 242 243 241 212 235 224 211 200 214 213 189 205 202 209 193 201 200 200 195 195 195 185 177 188 185 189 205 196 185 182 188 177 191 205 204 203 223 209 198 215 239 245 227 236 252
232 235 224 215 226 205 218 215 206 192 210 211 193 191 199 188 204 194 205 210 188 210 208 209 206 201 206 202 198 203 209 204 202 195 206 144 195 195 202 211 207 212 224 225 213 212 233 217 231
217 202 212 215 209 211 209 212 198 210 188 203 195 205 202 208 207 205 195 201 207 207 208 202 198 198 197 197 200 196 200 199 194 193 203 202 198 202 204 204 203 197 214 191 214 218 209 228 239
215 211 204 197 189 198 196 190 188 170 187 187 193 182 184 187 190 188 185 183 183 178 192 193 181 193 195 190 191 200 198 195 197 201 193 192 201 204 202 200 196 201 203 203 212 216 209 227 220
207 198 200 197 197 192 193 188 143 182 184 188 185 190 189 185 188 179 173 174 173 174 179 185 184 178 168 173 183 182 185 193 198 197 195 196 190 194 203 202 197 194 203 206 203 205 219 224 235
202 201 200 197 197 189 189 194 192 191 188 185 180 166 170 165 168 170 181 177 182 178 189 189 180 176 165 172 182 186 184 185 186 186 196 197 194 194 191 192 193 196 198 203 205 208 205 214 221
202 201 196 202 197 188 153 190 190 182 182 173 189 171 160 177 162 181 184 185 173 172 173 186 175 172 171 173 190 189 178 183 175 180 185 192 187 191 192 191 191 201 201 202 203 209 215 201 215
205 207 198 204 198 191 188 190 186 201 135 180 190 181 179 166 169 165 172 177 178 180 180 169 182 169 178 179 162 177 176 189 183 183 184 184 186 188 195 194 198 201 205 205 211 212 214 230 233
206 213 202 205 195 195 193 199 186 188 179 186 178 164 176 163 158 163 143 168 178 181 183 178 165 165 172 180 177 176 143 168 177 182 198 197 194 199 192 193 201 208 209 215 219 221 217 229 234
204 208 202 197 193 192 199 201 166 182 137 137 185 157 130 115 163 127 149 169 166 169 171 170 171 153 134 177 153 179 178 180 174 164 175 136 178 178 198 189 213 211 209 217 223 222 234 240 254
207 206 207 199 189 184 188 188 172 168 160 195 184 119 145 159 171 166 152 161 171 133 156 149 173 171 180 181 183 188 193 187 182 178 183 199 194 202 199 195 205 204 219 229 238 236 253 276 255
194 191 193 201 191 187 180 191 186 179 177 149 175 112 128 153 181 151 150 134 179 132 166 175 175 188 189 186 187 194 204 209 210 197 201 204 206 196 217 194 206 222 233 240 248 257 278 271 288
190 194 194 133 191 199 195 190 151 154 172 145 115 175 175 178 165 174 177 182 184 187 181 169 182 194 202 199 191 183 199 205 211 204 205 197 201 203 233 232 214 249 249 266 273 279 263 313 332
177 180 188 193 194 196 191 153 170 113 187 105 177 179 177 144 155 181 171 130 123 124 188 191 191 182 193 192 199 202 204 204 203 197 208 226 233 239 242 252 244 252 277 282 309 265 330 339 370
178 180 186 188 194 165 134 168 128 90 156 175 172 176 183 169 178 159 108 180 181 161 185 180 192 193 199 197 204 205 199 213 227 237 246 249 267 257 248 256 303 317 315 328 324 332 367 360 307
176 185 188 195 193 192 168 156 165 172 175 165 165 187 183 185 181 134 175 171 200 207 206 193 206 206 200 201 203 210 225 239 248 240 238 253 265 286 341 340 338 332 333 332 323 382 322 302 275

GFSSGP_2pvu_pres_009.txt.gz
Presure
151 129 120 171 140 151 140 145 166 154 134 110 119 123 147 141 124 152 145 142 123 126 150 158 158 143 166 152 159 173 191 193 202 214 250 239 238 230 232 233 238 237 231 229 220 276 127 187 241
122 119 109 138 120 141 132 111 115 112 139 153 150 146 161 164 146 158 127 145 157 170 157 154 178 168 190 171 184 184 204 217 230 233 245 246 254 250 271 266 253 256 240 272 248 264 243 258 248
82 167 138 87 117 116 141 145 121 145 146 142 125 135 150 159 155 164 163 167 163 155 175 173 199 184 188 196 266 250 283 266 262 264 283 257 256 249 251 244 244 250 243 222 240 238 245 243 245
114 83 127 121 121 144 159 132 136 141 139 146 157 134 160 154 148 168 170 164 187 197 190 200 219 211 260 254 277 276 263 266 254 251 252 240 249 261 269 265 271 249 267 253 140 256 230 229 231
153 138 142 143 127 139 140 139 130 177 158 161 154 158 167 156 174 167 179 187 182 207 221 245 274 298 290 251 260 259 256 252 257 271 295 271 255 263 270 258 267 252 245 251 248 229 241 215 192
135 142 127 155 129 136 163 161 154 159 168 160 143 151 154 169 171 172 189 191 284 266 296 291 283 273 265 258 268 258 280 267 264 270 269 267 265 266 267 261 255 258 239 247 229 241 227 229 219
158 125 128 138 163 157 152 164 162 145 167 152 176 164 168 163 181 193 195 301 329 221 292 276 275 277 292 291 279 279 277 268 266 261 252 253 253 253 249 251 250 253 246 249 231 244 231 218 214
172 170 172 165 165 165 157 158 162 140 175 156 168 172 195 207 219 211 262 265 256 260 271 230 246 240 268 260 252 253 257 251 236 235 254 251 245 239 238 238 240 244 250 246 227 227 218 218 213
169 167 176 176 157 154 143 168 167 172 185 170 197 229 291 296 271 265 321 256 285 252 267 255 259 254 243 248 246 244 240 259 246 255 262 268 278 252 233 230 225 235 239 235 223 237 217 222 221
163 165 168 169 166 174 167 185 164 186 194 256 308 311 278 262 275 252 260 222 248 243 181 239 228 240 249 248 248 242 221 226 224 232 224 218 222 230 245 246 255 230 225 231 232 240 239 222 231
142 178 155 173 162 160 175 188 189 284 238 231 219 259 240 257 234 233 217 239 235 236 220 220 223 207 230 213 200 203 228 231 227 229 232 207 236 228 225 212 229 238 243 243 218 227 231 237 209
159 163 162 192 176 200 204 284 280 210 250 257 247 248 247 250 210 236 234 220 225 218 201 165 199 193 166 192 213 206 216 207 203 199 203 209 204 203 211 223 208 200 215 231 241 239 233 219 230
161 177 171 210 223 234 243 248 243 252 250 247 228 231 224 226 221 212 215 214 209 204 206 213 204 215 208 207 195 194 198 201 186 187 190 196 202 199 202 195 197 204 188 204 213 225 231 235 230
186 273 280 216 249 250 225 246 244 229 225 227 222 220 217 213 207 206 199 201 204 199 202 193 196 200 189 202 198 201 201 201 195 197 192 191 194 195 200 191 198 199 210 213 205 201 210 216 229
251 224 249 229 240 240 216 235 235 212 225 201 211 211 217 202 191 198 194 211 215 216 212 210 211 198 173 195 190 189 190 192 195 197 192 204 192 201 202 203 149 204 211 203 203 217 214 204 213
244 254 245 218 227 219 197 214 201 214 202 210 203 211 219 207 206 210 210 201 203 195 193 192 200 188 180 188 194 189 185 188 200 194 195 200 201 193 191 191 199 202 210 205 206 206 213 207 210
219 221 222 217 213 206 212 211 210 198 204 199 198 190 192 186 191 201 194 193 188 182 182 181 179 183 189 183 189 180 174 184 185 191 188 187 187 187 193 194 196 194 194 198 201 203 204 207 210
200 223 207 210 207 206 197 193 197 197 195 192 188 192 185 192 192 194 187 184 189 181 185 181 179 176 184 183 173 174 170 172 194 188 184 178 181 180 184 188 194 188 197 195 195 194 199 203 210
202 217 206 209 198 200 197 196 194 196 188 190 190 187 183 188 178 170 176 167 186 183 183 180 179 186 173 173 173 172 171 179 175 176 173 173 183 182 182 180 185 185 183 191 191 195 198 194 203
213 205 203 196 198 196 195 194 190 190 189 188 188 181 176 186 178 165 162 164 161 177 122 180 173 173 177 179 175 176 182 165 183 184 191 160 168 172 173 175 178 188 197 193 195 199 197 193 201
209 206 209 205 196 194 199 196 189 189 191 191 183 169 185 181 184 177 177 171 166 180 159 175 171 170 176 190 185 181 168 180 182 183 191 187 190 192 192 194 177 175 178 186 194 198 194 196 197
205 204 208 206 206 194 196 196 195 186 178 196 198 165 196 171 181 158 128 169 171 170 148 159 148 169 185 124 160 175 162 157 179 183 190 164 189 159 189 192 202 204 203 179 193 192 198 193 191
197 203 202 209 214 205 202 206 194 192 196 169 178 169 185 154 168 132 170 161 165 157 142 141 137 168 136 113 190 178 173 150 182 181 190 194 175 195 199 196 204 204 206 205 200 204 138 193 201
214 193 209 218 210 206 203 199 185 180 168 173 169 156 177 177 110 116 136 149 166 153 153 141 160 149 176 177 184 188 185 185 185 183 194 199 197 196 201 199 206 209 225 235 249 228 249 242 265
191 196 200 194 193 196 161 203 204 201 187 183 176 167 167 169 119 136 143 177 172 178 152 179 148 129 124 123 183 177 180 191 202 193 191 229 227 234 226 227 246 250 247 248 256 260 266 280 266
187 192 187 190 185 184 188 194 196 198 204 200 204 129 116 171 112 174 136 176 175 172 179 181 182 130 163 181 182 185 182 187 200 221 220 235 234 235 238 302 270 271 261 320 319 323 327 328 319
191 186 179 178 179 182 182 178 195 204 200 198 152 109 187 180 172 173 175 165 183 115 184 130 117 183 184 178 193 192 206 205 215 217 233 235 239 277 281 247 299 357 346 336 325 322 326 347 341
188 188 182 183 180 125 187 190 105 167 156 119 147 180 184 179 173 172 157 175 171 133 151 166 158 190 190 194 198 207 218 220 228 233 240 274 274 281 303 311 287 299 291 292 290 296 298 254 289
185 184 188 187 187 199 201 185 79 184 182 183 183 155 177 174 160 179 166 171 121 132 156 182 201 201 196 202 207 222 221 231 227 227 267 271 292 326 294 282 274 289 291 267 279 285 288 285 288
183 178 187 192 187 185 182 176 176 190 188 179 176 175 162 154 174 187 190 123 189 185 198 194 195 207 210 215 222 217 245 253 252 275 286 299 321 294 271 273 268 269 272 256 272 255 265 273 272